7 * 24
多渠道服务支持
通信技术试验卫星十一号(通信技术试验卫星十一号)是中国自主研发的一颗用于验证新一代通信技术的试验卫星。该卫星主要用于开展天地一体化信息网络、高速数据传输、新型通信体制等关键技术的在轨验证,为未来卫星通信系统的升级和应用提供技术支撑。卫星于2023年成功发射,运行在地球同步轨道,具备高稳定性和高传输能力,标志着中国在卫星通信领域持续的技术进步与创新能力。
中国
(CN)
| 数据来源 | 国际轨道数据 |
| 星历时间: | 2025-12-20T00:34:26+0800 3小时前 查看轨道信息 |
| 半长轴: | 42164.953km |
| 偏心率: | 0.000577 |
| 轨道倾角: | 4.446° |
| 近地点辐角 | 340.019° |
| 升交点赤经 | 324.992° |
| 平近点角 | 152.445° |
| 近地点: | 35762.486km |
| 远地点: | 35811.146km |
| 周期: | 1436.108分钟 |
| 每日圈数: | 1.00271 |